Project,Study,Ord_Occ,Event_Num,Cast_ID,Date_Time_UTC,Date_Time_PST,Lat_Dec,Lon_Dec,Sta_ID,Line,Sta,Depth,Pressure,PrQ,Temp1,Temp1Q,Temp2,Temp2Q,TempAve,Salt1,Salt1Q,Salt1_Corr,Salt2,Salt2Q,Salt2_Corr,SaltAve_Corr,Ox1,Ox1Q,Ox1_CruiseCorr,Ox1_StaCorr,Ox2,Ox2Q,Ox2_CruiseCorr,Ox2_StaCorr,OxAve_StaCorr,Ox1uM,Ox1uM_CruiseCorr,Ox1uM_StaCorr,Ox2uM,Ox2uM_CruiseCorr,Ox2uM_StaCorr,OxAveuM_StaCorr,FluorV,FluorQ,EstChl_CruiseCorr,EstChl_StaCorr,ISUSV,ISUSQ,EstNO3_CruiseCorr,EstNO3_StaCorr,SigThetaTS1,SigThetaTS1Q,SigThetaTS2,SigThetaTS2Q,BAT,XMiss,TransQ,pH,pHQ,SPAR,SPARQ,PAR,PARQ,PoT1,PoT2,DynHt,SVA,OxSat1,OxSat2,BTL_Depth,BTL_Temp,SaltB,OxB,OxBuM,Chl-a,Phaeo,NO3,NO2,NH4,PO4,SIL
CalCOFI,2105SH,038,,2105_038d,12-May-2021 20:24:01,12-May-2021 12:24:01,34.32304,-120.80536,080.0 055.0,080.0,055.0,4.000,4.029,,14.7027,,14.6936,,14.6982,33.7696,,33.7708,33.7695,,33.7714,33.7711,6.4401,,6.8012,6.6258,6.4806,,6.7720,6.5355,6.5807,280.574,295.8109,240.3983,282.340,308.1492,239.6144,240.0064,0.3414,,2.1074,1.8623,2.8985,,8.2415,,25.0878,,25.0897,,,,,,,,,,,14.7021,14.6930,0.0035,286.535,111.616,112.298,3,13.261,33.7881,,225.43,2.165,0.900,8.01,0.152,0.34,0.78,10.96
CalCOFI,2105SH,038,,2105_038d,12-May-2021 20:24:07,12-May-2021 12:24:07,34.32306,-120.80536,080.0 055.0,080.0,055.0,5.000,5.036,,14.6302,,14.5936,,14.6119,33.7718,,33.7730,33.7686,,33.7705,33.7718,6.2574,,6.6101,6.4419,6.2945,,6.5792,6.3519,6.3969,272.611,287.4863,234.0646,274.225,299.5491,233.2018,233.6332,0.3419,,2.1104,1.8650,2.8857,,8.2415,,25.1050,,25.1104,,,,,,,,,,,14.6294,14.5929,0.0070,284.926,108.293,108.853,,,,,,,,,,,,
CalCOFI,2105SH,038,,2105_038d,12-May-2021 20:24:09,12-May-2021 12:24:09,34.32306,-120.80536,080.0 055.0,080.0,055.0,6.000,6.043,,14.5734,,14.5681,,14.5708,33.7723,,33.7735,33.7656,,33.7675,33.7705,6.1820,,6.5312,6.3660,6.2971,,6.5819,6.3544,6.3602,269.325,284.0512,231.4510,274.338,296.0002,233.2911,232.3711,0.3427,,2.1152,1.8694,2.8783,,8.2415,,25.1177,,25.1136,,,,,,,,,,,14.5725,14.5672,0.0099,283.752,106.867,108.840,,,,,,,,,,,,
CalCOFI,2105SH,038,,2105_038d,12-May-2021 20:24:10,12-May-2021 12:24:10,34.32307,-120.80536,080.0 055.0,080.0,055.0,7.000,7.051,,14.4184,,14.4063,,14.4124,33.7685,,33.7697,33.7701,,33.7720,33.7709,6.3073,,6.6623,6.4922,6.5054,,6.7977,6.5600,6.5261,274.773,289.7465,235.7843,283.406,301.8841,240.4568,238.1206,0.3407,,2.1031,1.8585,2.8739,,8.2415,,25.1477,,25.1516,,,,,,,,,,,14.4174,14.4052,0.0127,280.921,108.691,112.080,,,,,,,,,,,,
CalCOFI,2105SH,038,,2105_038d,12-May-2021 20:24:11,12-May-2021 12:24:11,34.32308,-120.80536,080.0 055.0,080.0,055.0,8.000,8.058,,14.4949,,14.5378,,14.5164,33.7676,,33.7688,33.7731,,33.7750,33.7719,6.3933,,6.7522,6.5787,6.5459,,6.8396,6.6000,6.5894,278.526,293.6699,238.7693,285.174,305.9374,241.8539,240.3116,0.3416,,2.1086,1.8634,2.8691,,8.2415,,25.1308,,25.1259,,,,,,,,,,,14.4938,14.5366,0.0155,282.567,110.342,113.077,,,,,,,,,,,,
CalCOFI,2105SH,038,,2105_038d,12-May-2021 20:24:13,12-May-2021 12:24:13,34.32308,-120.80536,080.0 055.0,080.0,055.0,9.000,9.065,,14.6629,,14.6923,,14.6776,33.7684,,33.7696,33.7693,,33.7712,33.7704,6.3559,,6.7131,6.5411,6.4862,,6.7778,6.5410,6.5411,276.903,291.9732,237.4784,282.582,304.1845,239.8057,238.6421,0.3603,,2.2202,1.9654,2.8619,,8.2415,,25.0956,,25.0900,,,,,,,,,,,14.6615,14.6909,0.0184,285.950,110.067,112.389,,,,,,,,,,,,
CalCOFI,2105SH,038,,2105_038d,12-May-2021 20:24:16,12-May-2021 12:24:16,34.32308,-120.80536,080.0 055.0,080.0,055.0,10.000,10.072,,14.5794,,14.6672,,14.6233,33.7706,,33.7718,33.7665,,33.7684,33.7701,6.2130,,6.5637,6.3972,6.2893,,6.5739,6.3467,6.3720,270.675,285.4624,232.5247,274.005,297.4583,233.0279,232.7763,0.3653,,2.2498,1.9927,2.8484,,8.2415,,25.1152,,25.0932,,,,,,,,,,,14.5780,14.6657,0.0213,284.113,107.413,108.922,,,,,,,,,,,,
CalCOFI,2105SH,038,,2105_038d,12-May-2021 20:24:18,12-May-2021 12:24:18,34.32309,-120.80536,080.0 055.0,080.0,055.0,11.000,11.080,,14.4270,,14.5060,,14.4665,33.7723,,33.7735,33.7681,,33.7700,33.7718,6.2373,,6.5891,6.4217,6.3106,,6.5959,6.3677,6.3947,271.726,286.5612,233.3607,274.922,298.5933,233.7526,233.5567,0.3532,,2.1780,1.9267,2.8289,,8.2415,,25.1489,,25.1289,,,,,,,,,,,14.4254,14.5044,0.0241,280.927,107.506,108.939,11,12.898,,,212.57,1.540,0.854,11.43,0.180,0.82,1.10,13.79
CalCOFI,2105SH,038,,2105_038d,12-May-2021 20:24:20,12-May-2021 12:24:20,34.32310,-120.80536,080.0 055.0,080.0,055.0,12.000,12.087,,14.4641,,14.4762,,14.4702,33.7739,,33.7751,33.7692,,33.7711,33.7731,6.1232,,6.4697,6.3068,6.1365,,6.4156,6.1959,6.2514,266.756,281.3655,229.4076,267.335,293.2257,227.7571,228.5824,0.3627,,2.2344,1.9785,2.8009,,8.2415,,25.1423,,25.1362,,,,,,,,,,,14.4624,14.4744,0.0270,281.586,105.621,105.872,,,,,,,,,,,,
CalCOFI,2105SH,038,,2105_038d,12-May-2021 20:24:21,12-May-2021 12:24:21,34.32310,-120.80536,080.0 055.0,080.0,055.0,13.000,13.094,,14.5442,,14.5389,,14.5416,33.7671,,33.7683,33.7699,,33.7718,33.7701,5.5780,,5.8996,5.7579,5.6038,,5.8638,5.6702,5.7141,243.008,256.5394,210.5188,244.131,267.5778,209.4208,209.9698,0.3460,,2.1350,1.8874,2.7573,,8.2415,,25.1201,,25.1234,,,,,,,,,,,14.5423,14.5370,0.0298,283.733,96.365,96.803,,,,,,,,,,,,
CalCOFI,2105SH,038,,2105_038d,12-May-2021 20:24:23,12-May-2021 12:24:23,34.32312,-120.80536,080.0 055.0,080.0,055.0,14.000,14.101,,13.8196,,14.0901,,13.9549,33.7742,,33.7754,33.7812,,33.7831,33.7793,4.8590,,5.1476,5.0341,4.7113,,4.9394,4.7893,4.9117,211.653,223.7608,185.5794,205.231,233.7143,178.6812,182.1303,0.3505,,2.1619,1.9120,2.6898,,8.2415,,25.2773,,25.2266,,,,,,,,,,,13.8176,14.0880,0.0326,268.786,82.730,80.657,,,,,,,,,,,,
CalCOFI,2105SH,038,,2105_038d,12-May-2021 20:24:25,12-May-2021 12:24:25,34.32312,-120.80536,080.0 055.0,080.0,055.0,15.000,15.109,,13.0354,,12.9980,,13.0167,33.8088,,33.8100,33.7616,,33.7635,33.7868,4.5058,,4.7783,4.6785,4.5876,,4.8112,4.6673,4.6729,196.232,207.6397,173.3137,199.803,217.0596,174.3918,173.8528,0.2281,,1.3949,1.2441,2.6021,,8.2415,,25.4630,,25.4341,,,,,,,,,,,13.0334,12.9960,0.0352,251.139,75.510,76.798,,,,,,,,,,,,
CalCOFI,2105SH,038,,2105_038d,12-May-2021 20:24:27,12-May-2021 12:24:27,34.32312,-120.80536,080.0 055.0,080.0,055.0,16.000,16.116,,12.7339,,12.7372,,12.7356,33.7956,,33.7968,33.7766,,33.7785,33.7877,4.5567,,4.8315,4.7297,4.6459,,4.8716,4.7248,4.7273,198.439,209.9469,175.0691,202.328,219.4432,176.3872,175.7282,0.1669,,0.9844,0.9102,2.4978,,8.2415,,25.5128,,25.4975,,,,,,,,,,,12.7318,12.7350,0.0377,246.424,75.881,77.363,,,,,,,,,,,,
CalCOFI,2105SH,038,,2105_038d,12-May-2021 20:24:29,12-May-2021 12:24:29,34.32312,-120.80536,080.0 055.0,080.0,055.0,17.000,17.123,,12.5941,,12.6034,,12.5988,33.8059,,33.8071,33.7873,,33.7892,33.7982,4.3182,,4.5821,4.4896,4.3040,,4.5175,4.3874,4.4385,188.047,199.0831,166.8034,187.432,208.2198,164.6160,165.7097,0.1379,,0.7837,0.7519,2.3803,,8.2415,,25.5482,,25.5319,,,,,,,,,,,12.5918,12.6011,0.0402,243.082,71.708,71.477,,,,,,,,,,,,
CalCOFI,2105SH,038,,2105_038d,12-May-2021 20:24:31,12-May-2021 12:24:31,34.32313,-120.80536,080.0 055.0,080.0,055.0,18.000,18.131,,12.4283,,12.4313,,12.4298,33.8018,,33.8030,33.7858,,33.7877,33.7954,4.0998,,4.3537,4.2698,4.1898,,4.3992,4.2747,4.2723,178.531,189.1351,159.2345,182.452,197.9425,160.6807,159.9576,0.1236,,0.6832,0.6739,2.2863,,8.2415,,25.5771,,25.5641,,,,,,,,,,,12.4259,12.4290,0.0426,240.348,67.844,69.330,,,,,,,,,,,,
CalCOFI,2105SH,038,,2105_038d,12-May-2021 20:24:32,12-May-2021 12:24:32,34.32314,-120.80536,080.0 055.0,080.0,055.0,19.000,19.138,,12.3371,,12.3404,,12.3388,33.8021,,33.8033,33.7880,,33.7899,33.7966,4.1567,,4.4132,4.3270,4.3363,,4.5509,4.4192,4.3731,181.007,191.7235,161.2039,188.828,200.6166,165.7191,163.4615,0.1161,,0.6301,0.6330,2.2101,,8.2415,,25.5950,,25.5834,,,,,,,,,,,12.3346,12.3379,0.0450,238.675,68.655,71.619,,,,,,,,,,,,
CalCOFI,2105SH,038,,2105_038d,12-May-2021 20:24:34,12-May-2021 12:24:34,34.32314,-120.80536,080.0 055.0,080.0,055.0,20.000,20.145,,12.2213,,12.2322,,12.2268,33.8159,,33.8171,33.7988,,33.8007,33.8089,4.2836,,4.5459,4.4548,4.3674,,4.5832,4.4499,4.4524,186.528,197.4952,165.5952,190.176,206.5793,166.7844,166.1898,0.1090,,0.5796,0.5942,2.1399,,8.2415,,25.6279,,25.6125,,,,,,,,,,,12.2187,12.2296,0.0474,235.570,70.587,71.975,,,,,,,,,,,,
CalCOFI,2105SH,038,,2105_038d,12-May-2021 20:24:36,12-May-2021 12:24:36,34.32316,-120.80536,080.0 055.0,080.0,055.0,21.000,21.153,,11.9592,,11.9651,,11.9622,33.8303,,33.8315,33.8123,,33.8142,33.8229,4.3046,,4.5679,4.4759,4.3727,,4.5886,4.4552,4.4656,187.428,198.4360,166.3111,190.399,207.5513,166.9606,166.6359,0.0946,,0.4764,0.5157,2.0827,,8.2415,,25.6888,,25.6737,,,,,,,,,,,11.9565,11.9624,0.0498,229.793,70.550,71.668,,,,,,,,,,,,
CalCOFI,2105SH,038,,2105_038d,12-May-2021 20:24:38,12-May-2021 12:24:38,34.32316,-120.80536,080.0 055.0,080.0,055.0,22.000,22.160,,11.8429,,11.8440,,11.8435,33.8365,,33.8377,33.8252,,33.8271,33.8324,4.2624,,4.5237,4.4335,4.3514,,4.5666,4.4341,4.4338,185.588,196.5125,164.8476,189.463,205.5641,166.2209,165.5343,0.0974,,0.4965,0.5309,2.0520,,8.2415,,25.7156,,25.7065,,,,,,,,,,,11.8401,11.8411,0.0521,227.272,69.691,71.142,,,,,,,,,,,,
CalCOFI,2105SH,038,,2105_038d,12-May-2021 20:24:40,12-May-2021 12:24:40,34.32316,-120.80536,080.0 055.0,080.0,055.0,23.000,23.167,,11.8184,,11.8197,,11.8191,33.8354,,33.8366,33.8266,,33.8285,33.8326,4.2476,,4.5082,4.4186,4.3274,,4.5417,4.4105,4.4146,184.941,195.8361,164.3329,188.415,204.8653,165.3928,164.8629,0.0953,,0.4814,0.5195,2.0318,,8.2415,,25.7193,,25.7122,,,,,,,,,,,11.8155,11.8168,0.0543,226.938,69.412,70.714,,,,,,,,,,,,
CalCOFI,2105SH,038,,2105_038d,12-May-2021 20:24:42,12-May-2021 12:24:42,34.32318,-120.80536,080.0 055.0,080.0,055.0,24.000,24.175,,11.7968,,11.7990,,11.7979,33.8364,,33.8376,33.8292,,33.8311,33.8344,4.2358,,4.4959,4.4067,4.3210,,4.5351,4.4041,4.4054,184.426,195.2977,163.9233,188.138,204.3091,165.1739,164.5486,0.0904,,0.4461,0.4927,2.0189,,8.2415,,25.7242,,25.7181,,,,,,,,,,,11.7937,11.7960,0.0566,226.502,69.188,70.580,,,,,,,,,,,,
CalCOFI,2105SH,038,,2105_038d,12-May-2021 20:24:43,12-May-2021 12:24:43,34.32318,-120.80536,080.0 055.0,080.0,055.0,25.000,25.182,,11.7862,,11.7867,,11.7865,33.8389,,33.8401,33.8330,,33.8349,33.8375,4.2585,,4.5196,4.4295,4.3606,,4.5761,4.4432,4.4364,185.414,196.3306,164.7092,189.862,205.3761,166.5362,165.6227,0.0934,,0.4677,0.5091,2.0143,,8.2415,,25.7281,,25.7234,,,,,,,,,,,11.7831,11.7835,0.0589,226.156,69.545,71.211,,,,,,,,,,,,
CalCOFI,2105SH,038,,2105_038d,12-May-2021 20:24:45,12-May-2021 12:24:45,34.32318,-120.80536,080.0 055.0,080.0,055.0,26.000,26.189,,11.7808,,11.7810,,11.7809,33.8432,,33.8444,33.8390,,33.8409,33.8427,4.3297,,4.5941,4.5012,4.4088,,4.6260,4.4908,4.4960,188.514,199.5713,167.1749,191.957,208.7241,168.1918,167.6834,0.1065,,0.5617,0.5806,2.0141,,8.2415,,25.7325,,25.7292,,,,,,,,,,,11.7775,11.7776,0.0612,225.765,70.701,71.991,,,,,,,,,,,,
CalCOFI,2105SH,038,,2105_038d,12-May-2021 20:24:47,12-May-2021 12:24:47,34.32320,-120.80536,080.0 055.0,080.0,055.0,27.000,27.197,,11.7709,,11.7720,,11.7715,33.8540,,33.8552,33.8490,,33.8509,33.8531,4.3598,,4.6256,4.5315,4.4413,,4.6597,4.5229,4.5272,189.822,200.9387,168.2152,193.369,210.1368,169.3076,168.7614,0.0932,,0.4663,0.5080,2.0158,,8.2415,,25.7428,,25.7387,,,,,,,,,,,11.7675,11.7686,0.0634,224.812,71.183,72.512,,,,,,,,,,,,
CalCOFI,2105SH,038,,2105_038d,12-May-2021 20:24:49,12-May-2021 12:24:49,34.32320,-120.80536,080.0 055.0,080.0,055.0,28.000,28.204,,11.7369,,11.7373,,11.7371,33.8613,,33.8625,33.8569,,33.8588,33.8607,4.4254,,4.6942,4.5976,4.5088,,4.7296,4.5895,4.5936,192.675,203.9212,170.4845,196.310,213.2180,171.6316,171.0581,0.0912,,0.4519,0.4971,2.0186,,8.2415,,25.7548,,25.7513,,,,,,,,,,,11.7333,11.7338,0.0657,223.691,72.205,73.566,,,,,,,,,,,,
CalCOFI,2105SH,038,,2105_038d,12-May-2021 20:24:51,12-May-2021 12:24:51,34.32320,-120.80536,080.0 055.0,080.0,055.0,29.000,29.211,,11.6861,,11.6868,,11.6865,33.8772,,33.8784,33.8716,,33.8735,33.8760,4.4147,,4.6830,4.5868,4.4700,,4.6894,4.5512,4.5690,192.206,203.4310,170.1114,194.614,212.7115,170.2914,170.2014,0.0974,,0.4965,0.5309,2.0216,,8.2415,,25.7766,,25.7721,,,,,,,,,,,11.6824,11.6831,0.0679,221.646,71.961,72.861,,,,,,,,,,,,
CalCOFI,2105SH,038,,2105_038d,12-May-2021 20:24:53,12-May-2021 12:24:53,34.32321,-120.80536,080.0 055.0,080.0,055.0,30.000,30.219,,11.6281,,11.6288,,11.6285,33.8829,,33.8841,33.8771,,33.8790,33.8816,4.3550,,4.6206,4.5267,4.4011,,4.6181,4.4832,4.5050,189.603,200.7098,168.0410,191.610,209.9003,167.9176,167.9793,0.0962,,0.4879,0.5244,2.0246,,8.2415,,25.7918,,25.7872,,,,,,,,,,,11.6243,11.6250,0.0702,220.221,70.903,71.652,,,,,,,,,,,,
CalCOFI,2105SH,038,,2105_038d,12-May-2021 20:24:54,12-May-2021 12:24:54,34.32322,-120.80537,080.0 055.0,080.0,055.0,31.000,31.226,,11.5591,,11.5597,,11.5594,33.8862,,33.8874,33.8800,,33.8819,33.8847,4.3426,,4.6076,4.5142,4.3966,,4.6134,4.4788,4.4965,189.061,200.1432,167.6099,191.413,209.3149,167.7619,167.6859,0.0964,,0.4893,0.5255,2.0272,,8.2415,,25.8072,,25.8023,,,,,,,,,,,11.5552,11.5558,0.0724,218.779,70.600,71.476,31,11.430,,,198.48,1.076,0.879,15.82,0.195,1.36,1.47,18.21
CalCOFI,2105SH,038,,2105_038d,12-May-2021 20:24:56,12-May-2021 12:24:56,34.32322,-120.80537,080.0 055.0,080.0,055.0,32.000,32.233,,11.5052,,11.5055,,11.5054,33.8892,,33.8904,33.8837,,33.8856,33.8880,4.3438,,4.6088,4.5154,4.4332,,4.6513,4.5149,4.5152,189.113,200.1975,167.6513,193.003,209.3711,169.0183,168.3348,0.0997,,0.5130,0.5435,2.0297,,8.2415,,25.8195,,25.8151,,,,,,,,,,,11.5012,11.5015,0.0746,217.635,70.541,71.990,,,,,,,,,,,,
CalCOFI,2105SH,038,,2105_038d,12-May-2021 20:24:58,12-May-2021 12:24:58,34.32322,-120.80536,080.0 055.0,080.0,055.0,33.000,33.241,,11.4735,,11.4703,,11.4719,33.8951,,33.8963,33.8928,,33.8947,33.8955,4.4060,,4.6739,4.5780,4.4927,,4.7129,4.5736,4.5758,191.819,203.0264,169.8036,195.593,212.2936,171.0650,170.4343,0.0962,,0.4879,0.5244,2.0332,,8.2415,,25.8299,,25.8287,,,,,,,,,,,11.4694,11.4662,0.0768,216.666,71.506,72.907,,,,,,,,,,,,
CalCOFI,2105SH,038,,2105_038d,12-May-2021 20:25:00,12-May-2021 12:25:00,34.32322,-120.80536,080.0 055.0,080.0,055.0,34.000,34.248,,11.4601,,11.4605,,11.4603,33.9024,,33.9036,33.8998,,33.9017,33.9027,4.4654,,4.7360,4.6378,4.5342,,4.7559,4.6146,4.6262,194.401,205.7256,171.8573,197.399,215.0821,172.4922,172.1748,0.0963,,0.4886,0.5249,2.0360,,8.2415,,25.8381,,25.8360,,,,,,,,,,,11.4559,11.4562,0.0790,215.914,72.452,73.568,,,,,,,,,,,,
CalCOFI,2105SH,038,,2105_038d,12-May-2021 20:25:02,12-May-2021 12:25:02,34.32323,-120.80536,080.0 055.0,080.0,055.0,35.000,35.256,,11.4558,,11.4560,,11.4559,33.9057,,33.9069,33.9033,,33.9052,33.9061,4.4828,,4.7542,4.6553,4.5576,,4.7802,4.6377,4.6465,195.159,206.5180,172.4602,198.414,215.9008,173.2942,172.8772,0.0961,,0.4872,0.5238,2.0379,,8.2415,,25.8415,,25.8395,,,,,,,,,,,11.4514,11.4517,0.0811,215.619,72.729,73.942,,,,,,,,,,,,
CalCOFI,2105SH,038,,2105_038d,12-May-2021 20:25:03,12-May-2021 12:25:03,34.32324,-120.80536,080.0 055.0,080.0,055.0,36.000,36.263,,11.4481,,11.4482,,11.4482,33.9099,,33.9111,33.9076,,33.9095,33.9103,4.4746,,4.7456,4.6471,4.5417,,4.7637,4.6220,4.6346,194.800,206.1427,172.1747,197.724,215.5130,172.7490,172.4619,0.0969,,0.4929,0.5282,2.0394,,8.2415,,25.8462,,25.8443,,,,,,,,,,,11.4436,11.4437,0.0833,215.194,72.586,73.675,,,,,,,,,,,,
CalCOFI,2105SH,038,,2105_038d,12-May-2021 20:25:04,12-May-2021 12:25:04,34.32326,-120.80536,080.0 055.0,080.0,055.0,37.000,37.270,,11.4314,,11.4317,,11.4316,33.9125,,33.9137,33.9099,,33.9118,33.9128,4.4803,,4.7516,4.6528,4.5338,,4.7555,4.6142,4.6335,195.049,206.4030,172.3727,197.378,215.7820,172.4756,172.4242,0.0963,,0.4886,0.5249,2.0408,,8.2415,,25.8513,,25.8492,,,,,,,,,,,11.4267,11.4271,0.0855,214.736,72.655,73.521,,,,,,,,,,,,
CalCOFI,2105SH,038,,2105_038d,12-May-2021 20:25:07,12-May-2021 12:25:07,34.32324,-120.80536,080.0 055.0,080.0,055.0,38.000,38.278,,11.4219,,11.4210,,11.4215,33.9123,,33.9135,33.9106,,33.9125,33.9130,4.4463,,4.7160,4.6186,4.4962,,4.7166,4.5771,4.5979,193.565,204.8517,171.1924,195.740,214.1792,171.1812,171.1868,0.0917,,0.4555,0.4998,2.0410,,8.2415,,25.8529,,25.8517,,,,,,,,,,,11.4171,11.4162,0.0876,214.607,72.088,72.895,,,,,,,,,,,,
CalCOFI,2105SH,038,,2105_038d,12-May-2021 20:25:09,12-May-2021 12:25:09,34.32324,-120.80538,080.0 055.0,080.0,055.0,39.000,39.285,,11.4010,,11.4013,,11.4012,33.9120,,33.9132,33.9095,,33.9114,33.9123,4.3833,,4.6502,4.5552,4.4117,,4.6290,4.4937,4.5245,190.824,201.9862,169.0122,192.060,211.2190,168.2731,168.6427,0.0966,,0.4908,0.5266,2.0343,,8.2415,,25.8565,,25.8545,,,,,,,,,,,11.3961,11.3965,0.0898,214.285,71.035,71.495,,,,,,,,,,,,
CalCOFI,2105SH,038,,2105_038d,12-May-2021 20:25:11,12-May-2021 12:25:11,34.32326,-120.80537,080.0 055.0,080.0,055.0,40.000,40.292,,11.3721,,11.3731,,11.3726,33.9122,,33.9134,33.9092,,33.9111,33.9123,4.2209,,4.4803,4.3917,4.2110,,4.4212,4.2956,4.3437,183.755,194.5963,163.3896,183.324,203.5844,161.3698,162.3797,0.0915,,0.4540,0.4987,2.0211,,8.2415,,25.8620,,25.8595,,,,,,,,,,,11.3672,11.3681,0.0919,213.789,68.363,68.202,,,,,,,,,,,,
CalCOFI,2105SH,038,,2105_038d,12-May-2021 20:25:13,12-May-2021 12:25:13,34.32328,-120.80536,080.0 055.0,080.0,055.0,41.000,41.300,,11.3014,,11.3027,,11.3021,33.9079,,33.9091,33.9024,,33.9043,33.9067,4.0445,,4.2958,4.2141,4.0601,,4.2649,4.1467,4.1804,176.071,186.5634,157.2778,176.753,195.2857,156.1772,156.7275,0.0847,,0.4049,0.4616,2.0027,,8.2415,,25.8716,,25.8670,,,,,,,,,,,11.2963,11.2976,0.0941,212.894,65.404,65.657,,,,,,,,,,,,
CalCOFI,2105SH,038,,2105_038d,12-May-2021 20:25:15,12-May-2021 12:25:15,34.32328,-120.80536,080.0 055.0,080.0,055.0,42.000,42.307,,11.2593,,11.2606,,11.2600,33.9009,,33.9021,33.8973,,33.8992,33.9007,3.9319,,4.1781,4.1007,3.9704,,4.1719,4.0581,4.0794,171.168,181.4378,153.3781,172.844,189.9904,153.0882,153.2332,0.0837,,0.3976,0.4562,1.9841,,8.2415,,25.8738,,25.8708,,,,,,,,,,,11.2541,11.2554,0.0962,212.702,63.523,64.146,,,,,,,,,,,,
CalCOFI,2105SH,038,,2105_038d,12-May-2021 20:25:16,12-May-2021 12:25:16,34.32330,-120.80538,080.0 055.0,080.0,055.0,43.000,43.315,,11.2342,,11.2340,,11.2341,33.8970,,33.8982,33.8928,,33.8947,33.8965,3.8603,,4.1032,4.0286,3.9158,,4.1154,4.0042,4.0164,168.053,178.1814,150.9004,170.470,186.6262,151.2122,151.0563,0.0882,,0.4302,0.4807,1.9656,,8.2415,,25.8753,,25.8721,,,,,,,,,,,11.2289,11.2287,0.0984,212.580,62.333,63.227,,,,,,,,,,,,
CalCOFI,2105SH,038,,2105_038d,12-May-2021 20:25:17,12-May-2021 12:25:17,34.32330,-120.80538,080.0 055.0,080.0,055.0,44.000,44.322,,11.2039,,11.2100,,11.2070,33.8917,,33.8929,33.8893,,33.8912,33.8921,3.8120,,4.0527,3.9800,3.8503,,4.0475,3.9396,3.9598,165.948,175.9808,149.2261,167.619,184.3528,148.9593,149.0927,0.0781,,0.3569,0.4256,1.9404,,8.2415,,25.8767,,25.8738,,,,,,,,,,,11.1985,11.2046,0.1005,212.469,61.510,62.137,,,,,,,,,,,,
CalCOFI,2105SH,038,,2105_038d,12-May-2021 20:25:20,12-May-2021 12:25:20,34.32330,-120.80536,080.0 055.0,080.0,055.0,45.000,45.330,,11.1779,,11.1724,,11.1752,33.8870,,33.8882,33.8837,,33.8856,33.8869,3.7024,,3.9381,3.8697,3.7195,,3.9121,3.8105,3.8401,161.178,170.9943,145.4321,161.922,179.2012,144.4574,144.9448,0.0665,,0.2722,0.3623,1.8828,,8.2415,,25.8778,,25.8763,,,,,,,,,,,11.1724,11.1669,0.1027,212.389,59.708,59.975,,,,,,,,,,,,
CalCOFI,2105SH,038,,2105_038d,12-May-2021 20:25:23,12-May-2021 12:25:23,34.32330,-120.80538,080.0 055.0,080.0,055.0,46.000,46.337,,11.1386,,11.1367,,11.1377,33.8824,,33.8836,33.8775,,33.8794,33.8815,3.5041,,3.7307,3.6700,3.5239,,3.7095,3.6175,3.6438,152.546,161.9704,138.5663,153.406,169.8786,137.7279,138.1471,0.0675,,0.2795,0.3678,1.8326,,8.2415,,25.8813,,25.8778,,,,,,,,,,,11.1329,11.1310,0.1048,212.074,56.461,56.775,,,,,,,,,,,,
CalCOFI,2105SH,038,,2105_038d,12-May-2021 20:25:24,12-May-2021 12:25:24,34.32331,-120.80537,080.0 055.0,080.0,055.0,47.000,47.344,,11.0754,,11.0766,,11.0760,33.8710,,33.8722,33.8673,,33.8692,33.8707,3.3943,,3.6159,3.5595,3.4124,,3.5940,3.5074,3.5335,147.764,156.9713,134.7628,148.553,164.7140,133.8929,134.3279,0.0648,,0.2597,0.3531,1.7922,,8.2415,,25.8838,,25.8808,,,,,,,,,,,11.0696,11.0708,0.1069,211.855,54.614,54.906,,,,,,,,,,,,
CalCOFI,2105SH,038,,2105_038d,12-May-2021 20:25:27,12-May-2021 12:25:27,34.32332,-120.80536,080.0 055.0,080.0,055.0,48.000,48.352,,11.0169,,11.0185,,11.0177,33.8597,,33.8609,33.8561,,33.8580,33.8595,3.1707,,3.3820,3.3344,3.1675,,3.3403,3.2657,3.3001,138.031,146.7964,127.0213,137.890,154.2024,125.4668,126.2441,0.0585,,0.2133,0.3187,1.7359,,8.2415,,25.8855,,25.8825,,,,,,,,,,,11.0111,11.0126,0.1091,211.711,50.949,50.897,,,,,,,,,,,,
CalCOFI,2105SH,038,,2105_038d,12-May-2021 20:25:29,12-May-2021 12:25:29,34.32332,-120.80536,080.0 055.0,080.0,055.0,49.000,49.359,,10.9552,,10.9514,,10.9533,33.8489,,33.8501,33.8418,,33.8437,33.8469,3.0366,,3.2418,3.1994,3.0530,,3.2217,3.1527,3.1761,132.192,140.6923,122.3770,132.905,147.8962,121.5275,121.9523,0.0584,,0.2126,0.3181,1.7031,,8.2415,,25.8882,,25.8833,,,,,,,,,,,10.9492,10.9455,0.1112,211.471,48.726,48.983,,,,,,,,,,,,
CalCOFI,2105SH,038,,2105_038d,12-May-2021 20:25:30,12-May-2021 12:25:30,34.32332,-120.80536,080.0 055.0,080.0,055.0,50.000,50.367,,10.9157,,10.9168,,10.9163,33.8403,,33.8415,33.8354,,33.8373,33.8394,2.9653,,3.1672,3.1276,3.0057,,3.1727,3.1060,3.1168,129.086,137.4453,119.9065,130.847,144.5417,119.9013,119.9039,0.0596,,0.2214,0.3247,1.6788,,8.2415,,25.8886,,25.8846,,,,,,,,,,,10.9096,10.9107,0.1133,211.458,47.539,48.187,,,,,,,,,,,,
CalCOFI,2105SH,038,,2105_038d,12-May-2021 20:25:31,12-May-2021 12:25:31,34.32332,-120.80535,080.0 055.0,080.0,055.0,51.000,51.374,,10.8601,,10.8584,,10.8593,33.8343,,33.8355,33.8281,,33.8300,33.8328,2.9143,,3.1139,3.0763,2.9686,,3.1343,3.0694,3.0729,126.865,135.1235,118.1400,129.234,142.1431,118.6266,118.3833,0.0619,,0.2384,0.3372,1.6528,,8.2415,,25.8938,,25.8893,,,,,,,,,,,10.8540,10.8523,0.1155,210.983,46.664,47.531,,,,,,,,,,,,
CalCOFI,2105SH,038,,2105_038d,12-May-2021 20:25:33,12-May-2021 12:25:33,34.32334,-120.80534,080.0 055.0,080.0,055.0,52.000,52.382,,10.8078,,10.8086,,10.8082,33.8265,,33.8277,33.8223,,33.8242,33.8260,2.8714,,3.0690,3.0331,2.9286,,3.0928,3.0299,3.0315,125.002,133.1759,116.6582,127.490,140.1310,117.2485,116.9534,0.0538,,0.1786,0.2930,1.6045,,8.2415,,25.8970,,25.8936,,,,,,,,,,,10.8016,10.8023,0.1176,210.692,45.925,46.839,52,10.690,,,129.55,0.223,0.479,21.53,0.236,0.06,1.81,22.37
CalCOFI,2105SH,038,,2105_038d,12-May-2021 20:25:37,12-May-2021 12:25:37,34.32334,-120.80534,080.0 055.0,080.0,055.0,53.000,53.389,,10.7737,,10.7739,,10.7738,33.8218,,33.8230,33.8197,,33.8216,33.8223,2.8495,,3.0461,3.0110,2.9043,,3.0677,3.0060,3.0085,124.047,132.1775,115.8986,126.431,139.0996,116.4116,116.1551,0.0522,,0.1668,0.2843,1.5392,,8.2415,,25.8994,,25.8978,,,,,,,,,,,10.7674,10.7676,0.1197,210.485,45.540,46.414,,,,,,,,,,,,
CalCOFI,2105SH,038,,2105_038d,12-May-2021 20:25:39,12-May-2021 12:25:39,34.32334,-120.80534,080.0 055.0,080.0,055.0,54.000,54.397,,10.7674,,10.7675,,10.7675,33.8232,,33.8244,33.8209,,33.8228,33.8236,2.8376,,3.0337,2.9990,2.8932,,3.0562,2.9950,2.9970,123.528,131.6350,115.4858,125.948,138.5391,116.0300,115.7579,0.0552,,0.1890,0.3007,1.5212,,8.2415,,25.9017,,25.8998,,,,,,,,,,,10.7609,10.7611,0.1218,210.295,45.343,46.231,,,,,,,,,,,,
CalCOFI,2105SH,038,,2105_038d,12-May-2021 20:25:40,12-May-2021 12:25:40,34.32334,-120.80534,080.0 055.0,080.0,055.0,55.000,55.404,,10.7478,,10.7472,,10.7475,33.8220,,33.8232,33.8184,,33.8203,33.8218,2.8280,,3.0236,2.9894,2.8849,,3.0476,2.9868,2.9881,123.107,131.1949,115.1509,125.588,138.0844,115.7455,115.4482,0.0551,,0.1882,0.3001,1.5112,,8.2415,,25.9042,,25.9015,,,,,,,,,,,10.7412,10.7406,0.1239,210.079,45.170,46.078,,,,,,,,,,,,
CalCOFI,2105SH,038,,2105_038d,12-May-2021 20:25:41,12-May-2021 12:25:41,34.32334,-120.80534,080.0 055.0,080.0,055.0,56.000,56.412,,10.7338,,10.7311,,10.7325,33.8207,,33.8219,33.8173,,33.8192,33.8206,2.8253,,3.0208,2.9867,2.8810,,3.0435,2.9830,2.9849,122.991,131.0736,115.0587,125.416,137.9591,115.6096,115.3342,0.0570,,0.2023,0.3105,1.5038,,8.2415,,25.9057,,25.9035,,,,,,,,,,,10.7271,10.7244,0.1260,209.956,45.113,45.999,,,,,,,,,,,,